AirNav   ProFlight Series 2 Aviation Headset
 
 516 users online  

35MN Wipline Airport
Inver Grove Heights, Minnesota, USA

GOING TO INVER GROVE HEIGHTS?


FAA INFORMATION EFFECTIVE 08 OCTOBER 2020

Location

FAA Identifier: 35MN
Lat/Long: 44-48-55.8790N 093-00-48.7690W
44-48.931317N 093-00.812817W
44.8155219,-93.0135469
(estimated)
Elevation: 687 ft. / 209 m (estimated)
Variation: 03E (1985)
From city: 2 miles SE of INVER GROVE HEIGHTS, MN
Time zone: UTC -5 (UTC -6 during Standard Time)
Zip code: 55077

Airport Operations

Airport use: Private use. Permission required prior to landing
Activation date: 02/1978
Control tower: no
ARTCC: MINNEAPOLIS CENTER
FSS: PRINCETON FLIGHT SERVICE STATION
Attendance: UNATNDD
Wind indicator: yes
Segmented circle: no

Airport Communications

WX AWOS-3 at SGS (2.6 nm N): 119.425 (651-457-8120)
WX ASOS at STP (7 nm N): 118.35 (651-312-8888)
WX ASOS at MSP (10 nm NW): 135.35 (612-713-4174)
WX AWOS-3 at 21D (13 nm NE): 120.075 (651-779-5949)
WX AWOS-3 at LVN (15 nm SW): 118.0 (952-469-5850)
WX ASOS at FCM (19 nm W): 124.9 (952-941-4156)

Nearby radio navigation aids

VOR radial/distance  VOR name  Freq  Var
MSPr115/10.7MINNEAPOLIS VOR/DME115.3002E
FGTr027/13.2FARMINGTON VORTAC115.7006E
FCMr091/18.3FLYING CLOUD VOR/DME117.7001E
GEPr136/25.0GOPHER VORTAC117.3006E
FOWr021/39.7HALFWAY VOR/DME111.2002E

 
NDB name  Hdg/Dist  Freq  Var  ID
HOPEY218/4.640003EPPI .--. .--. ..

Airport Services

Runway Information

Runway 3/21

Dimensions: 2300 x 150 ft. / 701 x 46 m
Surface: turf
RUNWAY 3  RUNWAY 21
Traffic pattern: leftleft

Airport Ownership and Management from official FAA records

Ownership: Privately-owned
Owner: ROBERT WIPLINGER
9100 RIVER ROAD
INVER GROVE HTS, MN 55075
Phone (612) 867-6160
Manager: ROBERT WIPLINGER
9100 RIVER ROAD
INVER GROVE HTS, MN 55075
Phone (612) 867-6160
CELL: 612-867-6160

Airport Operational Statistics

Aircraft based on the field: 5
Single engine airplanes: 5
    

Additional Remarks

FOR CD CTC MINNEAPOLIS ARTCC AT 651-463-5588.

Instrument Procedures

There are no published instrument procedures at 35MN.

Some nearby airports with instrument procedures:

KSGS - South St Paul Municipal Airport-Richard E Fleming Field (3 nm N)
KSTP - St Paul Downtown Airport Holman Field (7 nm N)
KMSP - Minneapolis-St Paul International/Wold-Chamberlain Airport (10 nm NW)
21D - Lake Elmo Airport (13 nm NE)
KLVN - Airlake Airport (15 nm SW)
KFCM - Flying Cloud Airport (19 nm W)
 
Loc | Ops | Rwys | IFR | FBO | Links
Com | Nav | Svcs | Stats | Notes
Area around 35MN (Wipline Airport)
 
Road maps at: MapQuest Bing Google
 
Aerial photo
No photo
 
Sectional chart

 
Airport distance calculator
Flying to Wipline Airport? Find the distance to fly.

From to 35MN

Sunrise and sunset
Times for 29-Oct-2020
 Local
(UTC-5)
 Zulu
(UTC)
Morning civil twilight07:1812:18
Sunrise07:4812:48
Sunset18:0323:03
Evening civil twilight18:3323:33

Current date and time
Zulu (UTC)  29-Oct-2020 10:51:46
Local (UTC-5)  29-Oct-2020 05:51:46
 
METAR
KSGS 
6nm W 
291035Z AUTO 36009G15KT 10SM OVC022 02/M03 A3010 RMK AO2 T00151027 PWINO
KSTP 
7nm N 
290953Z AUTO 36012G20KT 10SM BKN022 OVC039 02/M03 A3010 RMK AO2 SLP196 T00221033
KMSP 
10nm NW 
290953Z 35011KT 10SM FEW022 OVC038 02/M03 A3009 RMK AO2 SLP197 T00171028
K21D 
13nm NE 
291035Z AUTO 01008KT 10SM OVC018 01/M02 A3010 RMK AO2
KLVN 
15nm SW 
291035Z AUTO 35009G18KT 10SM BKN023 OVC038 01/M03 A3009 RMK AO2
KFCM 
19nm W 
290953Z 34007KT 10SM OVC022 02/M03 A3009 RMK AO2 SLP195 T00171033
TAF
KMSP 
10nm NW 
290859Z 2909/3012 35010KT P6SM OVC020 FM291500 36006KT P6SM FEW020 SCT120 FM300000 VRB03KT P6SM SCT100 FM300600 14004KT P6SM BKN040 FM300900 12003KT P6SM -SN BKN030
NOTAMs
Click for the latest NOTAMs
NOTAMs are issued by the DoD/FAA and will open in a separate window not controlled by AirNav.

 

 
 

Would you like to see your business listed on this page?

 If your business provides an interesting product or service to pilots, flight crews, aircraft, or users of the Wipline Airport, you should consider listing it here.  To start the listing process, click on the button below
 
Add a business
 

Other Pages about Wipline Airport

Update a link
 
Copyright © AirNav, LLC. All rights reserved. Privacy Policy  Contact